Meriden, CT

4:22 PM EST on November 15, 2019 (GMT -0500)
Meriden Markham Municipal

Weather History for KMMK - October, 2019

Change the Weather History Date:

Tuesday, October 15, 2019

  Actual Average (KOXC) Record (KOXC)
Temperature  
Mean Temperature 50 °F -  
Max Temperature 63 °F 57 °F 73 °F (2000)
Min Temperature 37 °F 39 °F 28 °F (1999)
Degree Days  
Heating Degree Days 16    
Moisture  
Dew Point 38 °F    
Average Humidity 70    
Maximum Humidity 96    
Minimum Humidity 35    
Precipitation  
Precipitation 0.00 in - - ()
Sea Level Pressure  
Sea Level Pressure 30.12 in    
Wind  
Wind Speed 2 mph (NW)    
Max Wind Speed 8 mph    
Max Gust Speed -    
Visibility 10 miles    
Events      
Averages and records for this station are not official NWS values.
T = Trace of Precipitation, MM = Missing Value Source: NWS Daily Summary

Daily Weather History Graph

Daily Weather History Graph

Search for Another Location

Airport or City:

Astronomy

Oct. 15, 2019 Rise Set
Actual Time 7:03 AM EDT 6:10 PM EDT
Civil Twilight 6:35 AM EDT 6:38 PM EDT
Nautical Twilight 6:02 AM EDT 7:10 PM EDT
Astronomical Twilight 5:30 AM EDT 7:42 PM EDT
Moon 7:28 PM EDT 8:31 AM EDT
Length of Visible Light 12h 03m
Length of Day
11h 07m
Full, 97% of the Moon is Illuminated
Oct 15
Full
Oct 21
Last Quarter
Oct 27
New
Nov 4
First Quarter
Nov 12
Full

Hourly Weather History & Observations

Time (EDT) Temp. Dew Point Humidity Pressure Visibility Wind Dir Wind Speed Gust Speed Precip Events Conditions
12:53 AM 51.1 °F 41.0 °F 68% 30.06 in 10.0 mi NNW 3.5 mph - N/A   Clear
1:53 AM 46.9 °F 39.9 °F 77% 30.08 in 10.0 mi Calm Calm - N/A   Clear
2:53 AM 43.0 °F 41.0 °F 93% 30.09 in 10.0 mi Calm Calm - N/A   Clear
3:53 AM 42.1 °F 39.9 °F 92% 30.10 in 10.0 mi Calm Calm - N/A   Clear
4:53 AM 39.0 °F 37.9 °F 96% 30.11 in 5.0 mi Calm Calm - N/A   Clear
5:53 AM 39.0 °F 37.9 °F 96% 30.12 in 10.0 mi Calm Calm - N/A   Clear
6:53 AM 37.9 °F 36.0 °F 93% 30.14 in 10.0 mi Calm Calm - N/A   Clear
7:53 AM 39.0 °F 37.9 °F 96% 30.17 in 10.0 mi Calm Calm - N/A   Clear
8:53 AM 48.0 °F 41.0 °F 77% 30.17 in 10.0 mi Calm Calm - N/A   Clear
9:53 AM 54.0 °F 37.9 °F 55% 30.18 in 10.0 mi NNW 4.6 mph - N/A   Clear
10:53 AM 55.9 °F 35.1 °F 45% 30.17 in 10.0 mi Variable 4.6 mph - N/A   Clear
11:53 AM 57.9 °F 32.0 °F 37% 30.17 in 10.0 mi Variable 5.8 mph - N/A   Clear
12:53 PM 60.1 °F 33.1 °F 36% 30.15 in 10.0 mi NW 8.1 mph - N/A   Clear
1:53 PM 61.0 °F 34.0 °F 36% 30.13 in 10.0 mi Calm Calm - N/A   Clear
2:53 PM 62.1 °F 35.1 °F 37% 30.11 in 10.0 mi North 4.6 mph - N/A   Clear
3:53 PM 61.0 °F 33.1 °F 35% 30.09 in 10.0 mi Calm Calm - N/A   Clear
4:53 PM 61.0 °F 34.0 °F 36% 30.08 in 10.0 mi West 4.6 mph - N/A   Clear
5:53 PM 54.0 °F 39.9 °F 59% 30.08 in 10.0 mi Calm Calm - N/A   Clear
6:53 PM 50.0 °F 41.0 °F 71% 30.09 in 10.0 mi Calm Calm - N/A   Clear
7:53 PM 45.0 °F 39.9 °F 82% 30.10 in 10.0 mi Calm Calm - N/A   Clear
8:53 PM 45.0 °F 39.9 °F 82% 30.12 in 10.0 mi Calm Calm - N/A   Clear
9:53 PM 42.1 °F 39.0 °F 89% 30.12 in 10.0 mi Calm Calm - N/A   Clear
10:53 PM 41.0 °F 37.9 °F 89% 30.11 in 10.0 mi Calm Calm - N/A   Clear
11:53 PM 39.9 °F 37.9 °F 93% 30.09 in 10.0 mi Calm Calm - N/A   Clear